Wind_Speed
11 9 7 8 11 13 14 17 19 19 19 18 15 11 10 13 13 12 11 9 8 9 9 8 6 4 3 2 3 5 7 9 10 11 12 12 12 10 9 7 9 13 14 13 12 10 9 9 9 9 9 8 7 8 8 9 9 9 10 10 10 10 11 11 10 9 9 10 9 8 7 8 9 9 8 8 8 9 9 8 8 8 7 8 9
12 9 8 8 10 14 15 17 19 19 19 17 13 10 10 13 14 15 14 11 10 10 9 8 7 4 2 0 2 4 6 9 11 12 13 14 14 12 11 10 8 9 11 12 12 10 9 10 9 9 9 8 8 8 8 9 9 9 9 9 9 10 11 11 10 10 9 9 10 10 9 8 9 9 9 9 9 9 9 10 10 9 9 8 8
13 10 9 9 10 13 15 16 18 19 19 17 12 9 10 12 15 17 15 13 12 11 9 9 7 5 3 2 3 4 7 10 12 13 14 15 15 14 13 11 9 8 8 10 13 13 13 12 12 12 11 10 9 9 9 9 9 8 8 8 9 10 10 10 11 10 9 10 10 11 11 10 10 11 11 10 10 10 11 12 12 10 9 8 8
13 11 10 11 11 12 14 16 18 18 19 17 12 8 10 12 15 17 15 14 13 11 10 8 7 6 5 4 4 5 7 10 13 14 14 16 17 17 15 13 11 9 7 7 9 12 13 14 14 13 13 12 12 11 11 10 9 9 9 10 11 11 10 10 11 10 8 9 11 11 12 12 12 12 12 12 11 11 12 12 11 9 7 7 7
14 12 12 12 11 12 14 15 17 17 17 17 12 9 10 13 15 16 16 15 13 11 10 9 8 8 7 6 6 6 8 10 13 14 14 15 17 19 18 16 14 11 9 8 7 8 9 10 12 13 13 13 13 13 12 12 11 11 11 12 13 14 12 11 11 10 9 9 11 12 12 12 12 13 14 13 11 11 11 10 9 8 8 7 7
15 14 14 13 12 13 15 15 16 15 16 16 13 9 11 14 15 15 16 15 13 11 10 9 9 8 8 8 9 9 10 11 14 15 14 14 16 17 18 17 15 13 11 10 9 8 7 7 8 9 10 11 12 13 13 13 12 13 13 15 15 15 14 12 11 10 10 10 10 11 11 10 11 12 12 11 11 12 11 10 10 9 9 8 8
17 16 16 14 13 15 15 16 15 14 14 16 13 10 12 14 15 15 16 15 12 10 9 9 9 8 8 9 10 11 12 13 14 15 15 14 15 16 17 17 15 13 12 11 10 8 7 6 6 7 8 9 10 11 12 12 12 13 14 15 16 15 14 13 12 11 11 9 9 9 9 9 11 10 9 10 12 12 11 10 9 9 9 9 9
18 17 16 14 14 15 16 16 15 13 13 14 12 10 11 13 14 15 15 15 12 9 9 9 9 9 10 10 10 11 12 13 14 15 15 14 15 16 17 17 15 13 11 10 9 8 7 6 5 5 6 7 7 8 9 9 9 10 11 13 14 14 13 12 12 11 11 10 8 7 8 9 10 9 8 9 11 10 9 9 10 10 10 10 10
20 18 17 15 15 16 17 16 16 14 13 12 11 11 11 13 13 14 15 15 13 10 10 10 10 10 11 11 11 12 13 13 13 14 14 15 15 16 17 17 16 14 11 10 9 9 7 5 4 4 4 4 5 6 6 6 6 6 7 9 12 12 12 11 11 10 10 10 8 7 7 7 7 7 8 8 9 9 9 10 10 11 11 11 10
21 20 18 16 16 17 18 18 17 16 15 14 13 13 13 14 14 15 16 16 14 12 11 10 10 10 11 11 12 13 15 15 15 14 14 15 15 15 16 17 16 14 12 10 9 8 7 6 4 3 2 2 3 3 3 3 3 3 4 6 8 9 10 11 11 10 9 9 9 8 7 7 6 7 7 8 8 8 9 10 10 11 10 9 8
23 21 21 19 19 20 21 20 19 18 18 17 17 16 16 16 15 15 16 16 15 13 12 12 12 12 11 13 14 16 17 17 17 16 15 15 15 15 15 16 15 14 13 10 8 7 7 5 3 2 0 1 1 1 2 2 2 2 2 2 4 5 6 8 10 10 10 9 9 8 8 7 7 6 7 7 7 8 8 9 9 8 7 6 6
25 23 22 21 21 23 24 23 22 21 20 19 19 18 18 16 16 16 16 16 14 13 13 14 14 13 13 15 17 19 20 20 20 19 17 16 15 15 16 16 14 13 12 11 8 6 5 4 2 1 1 2 2 2 2 1 1 2 2 1 1 1 2 3 4 6 6 6 6 6 6 5 5 4 5 5 5 6 6 5 5 5 4 4 4
27 26 24 23 22 23 25 24 24 23 21 21 21 19 18 17 16 16 15 15 15 15 15 15 15 15 16 18 19 21 22 22 22 21 20 18 15 14 14 15 13 12 11 10 8 5 3 2 2 1 1 3 3 3 3 3 3 3 3 3 3 3 3 4 3 3 3 2 3 3 3 3 3 2 2 2 2 2 2 2 3 3 4 3 4
28 28 26 24 23 24 25 25 25 24 21 20 21 19 18 17 16 16 17 18 18 17 16 15 16 17 19 20 21 23 24 24 23 24 23 19 15 13 12 13 12 10 10 8 6 4 2 2 2 2 2 2 3 3 4 4 4 4 4 4 3 3 3 4 4 4 4 4 3 3 3 3 3 2 1 1 1 1 2 3 3 4 4 4 4
29 29 28 27 27 27 28 29 28 26 22 19 18 18 18 17 15 17 20 20 18 16 14 13 15 17 19 22 23 25 25 23 24 27 24 18 15 12 11 12 11 9 8 6 4 3 2 3 3 3 2 2 2 3 3 4 4 4 4 4 3 3 2 2 3 3 3 3 3 3 3 2 2 2 2 2 2 1 1 2 2 2 2 2 1
31 30 31 31 30 29 31 30 26 21 19 17 16 16 17 15 16 21 23 17 12 11 12 14 16 16 19 21 23 23 23 23 25 24 20 16 14 11 11 10 9 8 6 3 2 3 3 4 5 4 3 3 4 5 6 6 7 7 7 7 6 6 5 5 5 5 5 5 5 5 5 4 4 4 4 3 3 3 3 2 1 1 1 0 1
33 33 32 34 33 31 30 28 21 12 10 12 14 16 16 15 20 24 20 11 9 11 14 16 16 16 17 19 21 21 21 21 22 18 15 16 15 12 11 9 6 6 4 1 3 4 5 5 6 6 6 7 8 10 11 12 12 12 12 11 11 10 10 9 9 9 9 8 7 7 7 6 5 5 4 4 4 4 4 3 2 2 1 1 1
29 30 28 29 32 27 23 22 19 12 9 11 14 15 15 16 21 23 16 10 10 14 16 17 15 13 12 12 14 15 16 18 18 15 14 16 15 12 10 7 4 3 2 2 4 5 7 7 8 10 11 12 12 13 14 14 15 14 14 13 13 13 12 11 11 11 10 9 8 7 7 6 5 4 3 3 2 2 2 2 2 1 1 1 2
13 11 9 12 17 14 12 17 18 15 13 13 14 14 16 16 18 19 15 12 13 16 15 16 15 11 9 8 9 11 13 15 15 14 15 17 16 12 9 7 4 3 3 4 6 7 9 10 11 13 14 14 14 14 14 14 14 15 14 14 13 12 12 11 10 10 9 8 7 6 5 5 4 3 3 1 1 1 1 1 1 2 2 3 4
4 6 9 8 6 8 11 13 12 11 12 12 13 15 17 16 16 16 14 13 13 13 13 13 12 8 9 10 9 10 10 11 13 14 14 17 16 13 10 8 5 5 6 7 9 9 10 11 12 13 14 14 14 14 14 14 13 13 14 13 12 11 11 10 8 7 6 5 5 4 3 2 2 2 2 2 3 3 3 4 4 4 5 6 7
9 9 8 10 12 11 11 12 13 13 13 13 14 16 16 15 14 12 11 10 10 9 9 10 8 7 7 7 7 8 9 10 11 12 12 15 16 14 14 12 8 8 8 9 11 11 11 11 12 13 13 13 14 14 14 13 13 13 12 12 11 10 9 8 6 5 4 2 1 1 1 2 3 4 4 5 5 6 6 6 6 7 7 8 9
10 7 6 9 11 12 12 12 12 13 13 14 15 15 14 13 11 9 9 8 7 7 7 7 7 7 6 5 5 6 8 10 11 11 10 12 14 15 17 16 12 11 10 10 12 13 13 13 13 13 13 13 13 13 13 13 12 12 11 10 10 9 8 6 5 4 3 3 4 4 5 5 6 6 7 7 7 8 8 9 9 9 10 10 11
4 3 6 10 12 13 12 10 10 10 11 12 14 14 13 12 10 9 8 6 5 5 5 6 7 8 8 7 6 6 7 8 9 10 9 10 12 15 19 19 16 15 14 12 13 14 15 16 16 16 16 15 15 14 13 13 12 11 10 10 9 8 8 7 6 6 6 6 7 8 8 9 9 10 10 10 10 10 11 11 12 12 12 12 12
4 5 10 12 12 12 11 11 11 10 11 12 13 13 12 11 10 8 7 6 5 5 5 7 8 9 9 9 9 9 8 8 8 10 9 11 13 16 19 20 19 18 17 16 15 15 15 16 17 17 17 17 17 16 15 14 13 12 12 11 11 10 10 9 9 9 9 9 10 10 11 11 12 12 13 13 14 14 14 14 14 14 14 14 14
7 10 13 13 12 13 13 13 12 12 14 15 14 13 13 13 11 10 9 8 7 6 7 8 8 9 10 11 12 12 11 9 9 10 11 13 16 19 20 21 20 20 19 19 18 18 17 18 18 18 18 18 17 17 16 16 16 15 15 14 13 13 12 11 11 11 11 12 12 12 13 14 14 15 15 16 16 17 17 17 17 17 17 17 18
11 14 15 14 14 14 14 13 13 15 17 18 17 16 16 15 13 12 11 10 11 11 10 10 10 11 12 13 14 15 14 12 11 11 12 14 17 20 22 22 22 22 22 22 21 21 21 21 21 21 20 19 19 18 17 17 17 17 16 16 15 13 12 12 12 12 13 14 14 14 15 16 18 19 19 18 18 18 18 19 20 20 20 20 20
16 17 17 17 17 17 16 16 17 17 18 19 18 18 18 16 14 13 13 14 15 16 16 14 13 13 14 15 16 17 17 16 15 14 14 15 17 20 23 24 25 25 25 25 25 25 26 26 25 24 22 21 20 20 19 19 19 18 18 17 16 15 14 13 13 14 15 17 17 17 16 17 19 19 18 17 17 18 19 19 20 21 21 21 22
19 20 20 19 19 19 19 19 19 19 19 18 18 17 17 15 15 15 16 16 16 17 17 17 16 15 15 16 17 18 19 19 18 16 15 15 17 20 23 25 26 27 28 28 28 30 31 30 27 26 24 22 21 21 21 21 21 20 20 19 18 17 16 16 17 18 19 20 20 20 19 19 19 18 17 17 18 19 20 21 22 23 23 24 25
21 22 22 21 21 21 21 20 19 19 18 18 17 17 16 15 16 16 17 17 16 16 17 17 17 16 16 17 17 18 20 21 20 19 17 16 17 20 24 26 28 28 29 30 31 33 34 34 32 29 27 25 24 24 24 24 23 22 22 22 21 20 20 20 20 21 21 21 21 21 20 19 19 19 19 20 20 21 23 24 26 27 27 28 29
22 22 22 22 22 22 21 20 19 18 17 17 16 15 14 14 15 16 17 18 17 17 17 17 17 17 17 17 18 18 19 20 20 20 19 18 18 21 25 28 30 31 32 33 35 35 36 37 37 34 31 30 29 28 27 27 26 25 25 24 23 21 22 23 22 21 21 21 21 20 18 16 17 19 20 21 22 23 25 26 27 28 29 29 30
22 22 22 22 22 21 20 19 18 17 16 16 15 15 15 15 16 17 18 18 18 17 16 17 17 18 18 18 18 18 18 19 20 20 21 21 21 22 25 28 30 31 33 35 37 39 38 38 38 37 37 36 34 33 33 31 29 27 27 26 24 22 22 23 22 20 20 20 19 18 16 16 17 18 20 21 23 25 25 26 28 29 29 30 31
22 22 22 22 22 21 20 19 18 17 16 15 15 16 16 17 17 18 18 19 18 17 16 17 17 18 19 20 20 19 19 20 21 21 22 22 21 23 24 26 27 28 30 33 35 37 39 38 37 37 39 40 39 39 37 32 28 26 27 26 24 23 23 22 20 19 19 19 18 16 15 16 17 18 19 21 23 25 26 27 28 29 30 32 33
22 22 22 22 22 21 20 19 18 17 17 17 17 18 18 19 20 20 20 20 19 18 18 18 18 18 19 20 21 21 21 21 22 22 23 22 22 22 23 24 24 25 26 28 29 31 34 34 34 35 37 40 41 41 37 31 28 27 26 24 24 23 22 20 19 19 19 19 17 16 16 17 18 19 21 22 24 26 27 28 30 31 32 32 33
21 21 21 21 21 21 20 20 19 18 17 18 18 19 19 20 21 22 22 21 20 21 21 20 19 20 20 21 22 22 22 22 22 23 23 23 23 23 23 23 24 24 24 24 24 25 27 28 30 31 33 35 39 40 38 34 30 28 25 24 24 22 20 18 18 18 18 18 17 17 19 20 22 23 24 25 26 27 28 29 30 31 32 32 33
19 20 20 20 21 22 21 21 20 19 19 20 20 20 21 22 22 22 22 21 22 23 23 23 22 22 22 23 24 24 25 24 24 23 23 24 24 24 24 24 24 23 23 22 22 22 22 24 25 25 26 28 32 34 33 31 27 25 25 25 23 21 19 19 19 19 19 19 20 21 22 23 24 25 25 26 26 27 29 29 30 30 31 31 32
16 17 18 19 20 21 20 19 19 19 20 20 21 21 23 23 23 23 23 23 24 24 24 25 26 25 25 25 26 27 28 27 26 25 25 25 26 26 26 25 24 23 22 22 21 21 21 22 22 21 22 25 27 26 24 24 24 24 24 24 22 20 20 20 20 21 21 22 23 23 23 24 25 26 26 27 27 28 28 29 29 30 31 32 33
14 15 16 16 18 19 19 19 20 20 21 21 22 23 24 24 24 24 25 26 26 25 23 23 24 24 26 26 27 28 29 29 28 27 26 26 26 27 27 26 24 23 22 22 22 21 21 21 21 21 22 24 24 22 19 21 24 24 24 23 21 21 21 21 22 22 23 24 24 25 26 26 27 28 28 28 28 29 29 30 31 32 33 34 35
15 16 17 18 19 20 21 21 22 23 23 24 24 25 25 25 25 25 26 27 27 25 24 22 21 21 22 23 24 25 28 29 29 29 28 27 26 26 26 26 24 24 23 22 22 21 22 22 21 21 21 21 21 21 20 21 23 24 23 23 22 22 22 23 23 23 24 24 25 26 27 28 29 29 30 30 30 30 31 31 32 33 34 34 35
19 19 20 21 22 23 23 24 25 25 26 26 27 27 28 28 28 28 28 28 28 27 27 26 24 23 23 22 22 23 25 27 29 30 30 29 28 27 26 26 25 25 24 23 22 22 22 23 22 22 22 22 22 22 22 23 23 24 24 24 24 24 24 23 23 23 24 25 26 27 28 29 29 29 30 30 31 31 31 31 31 32 33 34 35
22 23 24 25 26 26 26 27 28 28 29 29 30 30 30 31 31 31 30 31 31 30 29 28 27 26 26 25 23 23 23 25 28 30 31 31 30 28 26 27 27 26 24 23 23 23 22 23 23 23 23 24 24 24 24 24 24 25 25 25 25 24 24 23 23 24 25 27 28 29 30 30 30 30 30 31 31 31 31 31 32 33 34 35 36
26 27 27 28 28 29 29 30 31 32 33 33 34 34 34 34 34 34 33 34 34 34 33 32 30 29 28 27 25 23 22 22 25 29 32 33 32 30 28 27 27 26 25 24 24 24 24 24 24 24 24 23 23 24 24 24 24 25 25 25 25 25 25 25 25 26 28 29 30 31 32 32 32 32 32 32 32 32 32 32 33 35 36 37 39
28 29 30 31 31 32 33 34 35 36 37 38 38 38 38 38 37 36 36 37 37 37 37 36 34 32 31 29 27 25 23 22 24 27 30 32 33 34 32 30 29 28 27 26 25 26 26 26 26 25 24 24 23 24 24 24 25 25 25 25 25 25 26 27 27 29 30 31 32 33 34 34 34 34 34 34 34 34 35 35 36 37 38 40 41
30 31 33 34 34 35 35 36 37 38 39 40 41 41 41 40 39 39 38 39 40 40 40 39 38 36 35 33 31 29 27 26 26 27 29 31 32 33 34 34 32 32 31 31 30 29 28 27 26 25 24 24 25 25 25 25 25 25 25 25 26 27 28 29 30 31 33 33 34 35 35 35 36 36 36 36 36 36 37 37 38 39 40 41 42
32 33 35 36 37 38 39 40 40 41 43 44 45 46 46 45 44 43 43 43 43 43 43 43 42 41 40 39 37 35 33 31 29 29 31 33 33 32 33 33 34 35 35 35 34 33 31 29 27 26 26 27 27 27 27 26 26 26 27 28 29 30 31 32 33 34 35 35 36 36 37 37 38 38 38 38 37 37 37 37 38 40 42 43 43
35 36 38 39 41 42 43 43 43 44 45 46 47 49 50 49 49 49 49 50 49 49 49 48 46 46 45 43 43 41 39 36 34 33 34 35 35 34 33 33 35 36 37 37 36 35 35 34 33 32 31 30 30 30 29 29 30 30 31 31 32 33 33 34 35 36 36 37 38 37 37 38 38 38 38 37 36 35 36 38 40 42 43 43 43
36 37 38 38 39 41 41 42 42 42 43 44 45 46 48 48 49 49 50 51 52 52 52 52 50 49 48 47 47 46 44 42 39 37 37 37 37 38 37 37 37 37 38 38 38 38 39 39 38 37 35 35 34 34 33 33 33 34 34 34 34 34 34 35 36 36 37 37 37 37 37 36 36 36 35 35 34 36 39 42 43 43 43 42 42
33 33 34 35 36 37 38 39 39 40 40 42 43 44 45 46 47 47 47 47 49 50 50 50 50 49 49 49 49 48 48 46 44 42 41 40 39 40 41 40 38 36 36 39 41 44 46 43 38 36 36 36 37 37 36 36 36 36 36 36 36 35 35 35 35 36 36 36 36 36 36 35 35 34 34 35 38 41 43 43 43 42 41 40 39
30 31 32 34 35 36 38 39 40 41 42 42 43 43 44 45 46 46 46 46 47 47 48 48 48 48 47 47 48 48 48 48 47 45 44 43 42 42 42 41 39 38 39 40 41 43 45 42 36 33 32 33 34 35 35 35 35 36 35 35 35 35 35 34 35 35 35 35 36 36 36 36 36 36 38 40 41 42 41 40 39 38 37 36 34
29 30 32 34 36 37 38 39 40 42 43 43 43 44 44 45 46 46 47 47 46 46 47 47 46 46 46 46 46 46 47 48 49 48 47 46 45 44 43 42 41 41 39 38 36 35 35 34 31 29 28 28 28 28 29 30 31 32 32 32 32 32 33 33 34 35 35 36 36 37 37 37 37 38 38 39 38 37 36 35 34 33 32 30 28
27 28 30 30 31 32 32 32 33 34 35 36 36 37 38 41 43 45 47 48 48 47 47 47 47 46 45 44 45 45 45 46 48 49 49 49 48 47 46 45 43 41 38 37 36 36 34 32 29 27 24 24 24 25 26 28 29 29 30 30 30 30 32 33 34 35 36 36 36 37 36 36 36 35 34 34 33 32 31 30 28 27 25 25 25
23 23 22 22 22 23 24 25 25 25 26 26 27 28 29 32 35 39 42 45 47 48 48 47 47 47 46 45 44 44 44 44 45 47 49 50 50 48 47 47 46 44 41 39 38 37 37 35 32 27 24 23 25 27 27 28 29 29 30 30 31 31 31 32 33 34 35 35 35 35 34 34 32 31 29 28 28 27 26 24 23 23 23 23 24
Wind_Direction
180 171 177 180 177 183 185 183 178 174 177 179 178 182 200 210 215 211 196 188 190 186 179 173 166 158 138 77 34 22 16 9 3 1 0 358 351 344 332 298 260 250 250 251 254 246 229 223 226 231 233 229 231 237 237 241 246 249 248 248 249 251 251 246 236 228 230 237 240 236 233 239 245 245 243 236 233 240 244 246 252 256 259 255 252
182 175 176 181 181 181 183 185 181 178 180 180 179 187 204 213 211 200 192 190 195 195 190 185 185 184 177 202 353 2 3 2 359 354 355 356 353 347 341 330 304 271 252 242 244 243 231 227 226 229 233 227 225 229 229 234 238 240 242 245 250 252 246 238 233 231 232 238 245 243 235 230 235 240 240 233 227 235 246 253 257 259 260 260 260
181 178 176 175 179 179 180 184 184 184 185 182 181 188 205 213 204 195 191 190 196 202 202 198 202 209 218 259 311 346 357 358 354 349 346 347 349 349 346 341 331 308 276 248 242 245 243 238 233 231 232 229 227 226 224 227 227 226 232 243 250 252 251 243 238 238 236 238 243 244 240 233 227 228 231 229 227 234 246 252 253 254 257 259 261
184 182 177 172 175 176 178 182 187 191 189 186 189 193 203 206 197 193 191 191 199 205 206 207 215 230 243 267 300 338 356 357 350 345 340 339 343 346 347 346 341 330 310 280 258 251 247 242 237 235 233 232 233 232 232 232 229 229 238 249 252 251 251 245 241 241 233 232 236 235 236 233 227 227 229 230 231 237 245 249 247 247 252 255 256
189 185 178 173 173 173 176 183 190 195 195 194 197 196 200 201 196 192 190 195 203 206 207 210 221 240 260 279 301 326 345 349 345 342 337 335 340 343 345 345 342 337 327 312 292 274 260 251 245 242 240 239 240 241 243 243 240 240 243 247 250 251 250 240 238 242 234 229 234 233 232 232 230 232 233 233 234 237 241 242 242 247 255 259 260
192 187 181 176 172 171 175 182 187 192 196 200 204 199 196 201 200 196 194 200 206 210 214 216 225 246 266 282 298 312 325 334 335 336 335 331 335 341 343 343 340 336 330 321 310 298 287 272 260 253 248 245 246 246 248 248 247 246 244 244 245 246 244 236 232 236 235 230 230 231 229 228 231 235 237 239 238 236 235 234 241 255 267 271 275
196 190 184 177 173 172 175 179 181 186 193 200 207 204 196 199 202 201 201 204 209 217 224 226 234 252 268 279 292 305 312 318 322 328 332 329 329 335 340 340 337 333 327 318 311 305 299 293 282 269 260 253 250 249 250 251 250 248 246 243 241 238 232 229 230 232 235 235 231 229 230 234 237 234 235 240 238 234 235 239 251 267 277 282 286
201 195 188 180 175 173 176 178 178 182 191 199 207 204 195 195 200 203 206 209 214 222 228 235 243 255 266 275 288 300 305 308 311 317 325 327 325 328 334 335 332 330 324 312 300 296 297 299 295 282 269 259 253 251 250 252 252 250 248 243 240 236 228 225 230 233 236 240 240 239 242 245 241 234 232 235 236 236 244 255 265 275 281 285 289
203 198 191 186 179 176 178 179 177 179 187 195 200 200 195 193 196 202 207 213 218 222 229 238 250 262 273 283 292 298 299 299 299 302 311 318 321 321 326 328 327 326 325 316 301 293 291 295 296 285 269 256 249 246 246 248 250 248 246 242 239 238 231 226 230 234 235 238 244 245 242 239 235 235 234 234 238 246 255 263 271 277 281 283 286
204 200 195 191 186 181 181 180 178 180 184 189 194 197 195 193 195 200 207 214 218 222 228 239 254 268 278 286 291 291 290 290 290 291 298 307 312 313 317 321 322 323 324 321 311 301 296 293 296 290 259 233 228 232 227 224 228 228 232 234 234 236 234 230 232 237 239 239 244 248 247 246 243 242 242 241 246 252 259 268 275 280 281 283 284
207 203 199 195 189 186 186 186 185 183 183 187 194 198 198 196 197 202 208 214 219 223 228 237 250 263 274 281 285 286 287 287 287 287 291 300 305 308 311 314 317 320 322 321 314 305 298 292 293 302 277 132 147 166 176 181 184 183 193 213 223 227 230 233 237 244 250 250 250 251 253 252 245 239 240 245 252 258 264 271 276 280 282 285 289
210 209 206 202 194 189 189 190 189 188 186 188 195 200 200 199 200 204 210 215 221 226 230 237 247 258 268 274 280 284 287 290 290 289 289 291 296 301 306 311 315 320 321 320 315 305 294 281 269 272 77 81 90 103 113 119 113 98 92 89 112 149 176 207 221 232 240 243 241 237 233 232 227 225 233 241 251 257 265 273 280 285 288 293 296
210 211 210 208 201 195 194 194 192 191 189 190 194 198 199 201 205 208 213 218 223 226 230 237 244 252 258 262 271 277 282 287 289 291 289 284 286 295 302 309 315 321 322 319 315 304 282 251 220 178 106 88 86 85 83 78 72 70 70 70 72 78 86 97 114 130 146 152 152 153 156 159 156 163 182 206 235 262 282 294 297 295 292 288 284
212 213 214 214 210 202 198 199 198 195 192 191 193 194 197 204 208 212 218 220 222 224 227 234 242 250 254 256 263 270 277 284 289 294 290 278 278 289 298 308 314 318 322 318 308 295 263 219 197 172 118 90 81 75 72 68 65 66 66 65 66 68 73 80 86 92 99 103 106 110 115 121 128 141 161 194 239 279 290 287 285 284 283 277 276
212 214 215 216 216 210 203 204 205 198 190 188 190 193 198 206 213 224 228 224 222 227 235 247 253 260 265 265 265 267 273 282 287 291 287 272 270 279 286 301 312 316 321 314 292 269 225 195 181 166 134 99 83 77 74 71 73 76 78 81 85 91 97 100 102 112 121 125 131 138 141 150 161 174 189 205 218 231 245 254 254 257 271 281 283
214 215 218 219 222 218 210 212 218 208 189 180 185 195 201 210 225 234 237 238 242 251 261 269 273 281 285 280 276 271 273 279 282 287 283 266 265 270 270 284 304 313 315 299 249 207 185 178 166 155 141 126 113 103 97 94 93 93 95 97 98 102 107 112 117 123 128 132 139 143 142 147 155 156 161 163 162 160 153 158 171 162 159 130 88
216 215 219 221 223 220 214 218 226 218 188 179 188 200 205 217 236 246 253 271 290 283 278 280 285 294 294 285 280 277 275 279 282 283 274 258 259 262 258 264 289 302 301 258 190 170 164 161 154 144 134 126 118 111 107 104 101 100 100 99 98 99 99 102 106 108 111 115 119 124 123 126 132 134 139 144 147 149 147 150 144 125 119 83 60
219 221 227 231 232 227 216 212 206 186 179 192 200 209 215 228 249 265 286 309 296 284 284 292 299 298 290 279 272 269 269 273 277 273 255 246 252 257 248 242 252 274 269 174 160 154 151 149 144 136 128 124 119 115 112 110 109 107 104 103 102 100 98 98 100 102 104 105 106 110 112 114 116 116 119 124 131 138 138 138 133 115 73 28 18
215 218 228 241 242 229 197 197 198 188 189 194 201 218 229 239 255 273 290 292 283 283 290 301 304 291 267 249 242 249 261 270 273 267 250 242 250 254 237 223 215 201 179 163 154 150 148 144 140 136 132 129 126 122 120 117 116 114 112 111 108 105 105 104 102 102 105 106 107 108 111 115 118 117 119 132 151 191 231 266 298 321 331 338 340
136 120 108 115 147 153 158 176 182 181 184 189 205 225 237 248 258 269 279 281 281 287 291 296 296 274 249 242 244 251 261 273 273 265 248 238 244 242 220 212 202 182 175 167 158 154 152 147 143 141 138 137 135 133 131 129 126 125 124 124 123 118 118 118 116 114 113 113 113 116 123 134 157 174 189 215 229 243 255 264 279 295 307 315 319
117 133 135 132 134 140 152 160 165 182 199 213 228 238 244 250 254 261 271 278 284 290 292 289 283 271 258 253 259 259 259 266 267 262 248 235 238 233 213 203 197 193 189 175 166 163 160 157 154 151 148 147 145 144 144 144 143 141 140 141 143 142 141 142 144 145 146 151 165 199 226 239 248 244 243 246 246 253 260 267 274 282 290 298 302
120 132 156 156 155 158 160 166 184 207 223 234 241 243 242 241 243 251 260 270 279 281 283 285 284 288 289 279 272 263 262 268 268 269 257 236 238 233 213 201 197 199 196 186 179 175 173 172 169 165 163 162 160 160 161 161 162 162 161 161 162 165 168 173 182 197 214 238 254 265 268 267 268 266 265 264 262 263 266 270 275 279 284 289 292
155 167 169 160 159 159 159 171 193 212 227 238 241 237 234 234 238 247 253 258 261 257 267 282 287 291 291 285 280 273 273 278 280 278 260 230 232 228 208 200 201 202 201 199 194 189 186 184 182 180 178 177 178 179 180 181 182 182 184 186 189 193 199 206 216 228 243 255 262 268 272 275 277 279 282 283 281 279 277 276 277 277 281 286 292
192 190 182 176 170 165 172 187 194 203 217 228 232 231 231 231 232 236 239 245 249 255 265 273 279 283 283 282 280 279 280 283 284 276 250 219 215 214 206 204 206 206 208 210 208 204 201 198 195 193 192 190 190 191 193 195 197 199 202 206 210 215 220 224 229 234 240 248 257 264 269 274 278 281 285 288 290 290 288 286 283 280 281 286 292
196 186 186 189 184 179 185 193 200 211 216 218 224 232 235 232 232 234 239 250 259 265 269 270 274 277 277 277 277 277 277 275 271 264 242 217 208 207 210 213 214 214 216 218 218 217 214 212 209 205 204 204 204 204 204 205 207 209 212 215 219 224 229 234 240 244 248 250 253 259 266 272 276 278 280 283 285 287 290 290 289 287 286 289 292
193 187 188 191 189 188 193 206 220 225 222 223 231 239 240 238 242 249 259 273 282 283 281 276 276 274 273 273 273 272 272 268 263 255 237 220 211 210 215 219 220 221 223 226 228 227 225 223 220 217 215 215 215 217 217 217 217 220 223 224 225 229 235 242 249 256 264 267 267 268 270 271 274 276 277 278 281 284 288 291 291 291 291 292 295
193 192 194 196 197 199 205 217 226 225 225 229 234 237 239 244 257 271 283 292 295 293 288 282 277 272 268 269 270 270 270 268 264 255 239 224 216 216 218 222 224 225 226 230 234 235 234 230 228 227 226 225 224 224 226 227 227 228 229 231 233 236 241 247 254 261 268 272 274 275 274 274 278 278 273 274 280 285 289 290 290 291 293 296 299
196 197 198 199 202 207 212 220 223 222 223 227 230 236 246 260 276 287 294 298 298 296 292 286 279 270 264 265 267 268 270 270 267 259 246 231 223 222 224 226 227 228 229 232 236 240 241 238 235 233 231 231 231 230 231 233 233 234 236 238 238 241 245 248 253 259 264 268 272 274 274 277 281 282 279 279 282 284 286 288 289 289 292 296 301
198 198 201 204 209 213 216 219 219 220 223 229 237 248 260 274 284 291 296 299 299 297 293 289 282 272 265 262 263 265 267 268 268 263 255 243 231 228 230 232 233 233 234 236 239 242 244 242 239 237 236 236 233 231 232 234 237 240 242 243 244 247 249 252 254 259 264 268 271 273 274 276 277 279 281 281 281 283 285 287 288 289 293 297 299
198 200 204 208 211 214 216 218 222 227 232 240 248 257 267 277 285 292 297 299 299 296 292 288 284 277 269 262 259 260 261 264 265 264 261 255 244 236 235 236 237 238 238 241 244 246 246 245 241 237 237 240 238 236 237 239 240 243 245 248 252 254 255 256 259 264 269 271 272 272 272 272 273 275 278 279 282 284 285 287 290 293 297 299 299
202 205 208 209 212 216 219 224 229 234 238 243 250 258 267 275 282 289 293 296 295 293 291 289 285 280 275 267 260 257 256 258 261 261 261 260 255 249 244 242 243 243 243 244 246 248 250 251 248 241 237 240 243 243 243 242 239 240 244 249 254 257 258 260 262 266 269 269 269 270 271 272 274 276 278 281 284 285 287 291 294 297 299 300 300
208 210 212 215 219 222 225 228 230 232 236 242 251 261 269 274 279 284 287 289 289 289 291 291 287 282 277 270 262 256 254 255 257 258 259 260 258 255 253 252 251 250 250 249 249 250 252 255 255 250 242 241 243 244 244 243 239 239 244 250 253 254 255 257 260 261 262 261 262 267 272 275 277 279 281 282 284 286 289 292 294 296 297 298 299
214 215 218 221 224 227 230 231 231 232 234 240 250 261 268 274 279 282 283 283 283 286 290 291 288 284 279 272 264 256 253 253 255 257 260 262 261 258 255 255 255 255 256 257 256 256 256 256 256 253 246 242 243 244 246 248 247 244 246 250 252 252 251 253 256 256 256 257 260 266 271 274 278 281 282 284 285 287 289 290 292 293 294 295 296
221 223 225 228 231 233 236 237 238 239 240 244 250 257 263 269 275 279 280 280 282 285 288 289 287 283 279 273 266 257 252 252 254 256 259 260 261 260 258 256 256 257 258 259 257 256 256 257 256 254 249 244 241 241 245 249 247 242 241 243 247 249 248 248 250 250 252 257 263 268 273 275 278 280 281 282 283 284 286 288 289 290 292 293 294
233 234 235 237 240 242 243 244 247 251 253 256 257 258 260 263 267 270 273 276 281 284 285 285 284 280 275 271 267 261 253 249 250 253 255 257 259 260 259 257 256 257 255 253 251 250 251 253 255 255 253 245 238 237 239 240 236 233 236 241 244 244 243 243 246 250 256 263 270 275 278 279 280 281 281 281 282 284 285 287 288 289 290 292 293
243 243 244 245 247 250 253 255 256 258 260 262 264 264 264 264 264 265 267 271 274 277 279 281 280 277 272 269 269 266 260 253 250 250 252 255 257 258 258 256 255 253 250 245 243 243 244 246 247 247 245 240 238 240 239 233 230 232 238 241 241 241 242 247 253 260 268 273 278 281 283 284 284 284 285 285 285 285 286 287 288 289 290 291 293
249 253 255 256 259 263 266 268 268 268 267 267 268 269 269 267 266 267 269 272 273 273 272 275 276 274 271 269 268 267 263 258 256 254 252 253 255 256 255 253 248 243 240 239 238 238 239 239 239 238 237 235 235 237 234 230 232 235 237 238 240 244 250 257 264 270 274 277 280 283 285 286 286 286 286 286 286 286 286 287 288 289 291 292 294
256 260 263 266 269 270 272 273 274 274 273 272 272 271 270 269 269 270 272 274 274 272 269 269 270 268 267 267 267 266 264 262 261 259 255 253 253 253 251 246 239 233 232 234 236 237 236 236 235 234 232 232 232 232 231 232 234 235 236 240 246 253 259 264 268 271 275 279 282 285 286 287 287 287 288 287 287 287 286 287 289 290 292 293 294
259 263 266 269 271 272 273 274 274 274 275 274 274 273 273 272 273 274 274 274 273 271 269 268 267 265 263 265 265 265 264 263 261 260 256 252 250 248 244 238 232 230 232 234 236 237 237 236 236 234 234 234 235 235 235 236 237 239 243 249 254 258 262 265 268 273 277 281 284 285 287 288 289 289 290 291 290 290 291 292 293 294 294 295 295
264 266 268 269 270 271 272 272 273 273 273 273 273 273 273 274 274 275 274 273 272 271 269 268 266 264 263 263 262 263 264 263 261 258 255 251 247 243 240 237 235 235 237 238 239 240 240 239 238 236 235 235 235 236 238 240 243 246 251 255 258 261 263 267 272 277 280 282 284 286 287 289 291 292 294 294 295 295 296 296 296 296 297 297 298
264 265 266 267 268 268 269 270 271 272 273 273 272 271 270 271 270 270 269 269 268 268 268 267 266 264 264 263 261 260 260 260 259 257 255 252 248 243 241 241 241 242 242 242 241 242 243 243 241 238 236 236 236 237 239 242 246 250 254 257 259 263 266 270 274 277 280 283 285 288 289 290 292 293 294 295 295 296 296 296 296 297 297 298 298
262 263 265 266 267 268 269 270 271 272 273 272 272 271 269 268 266 265 265 265 265 266 266 266 266 265 264 262 260 257 254 254 256 256 256 255 252 249 246 245 246 249 249 248 246 245 244 243 241 238 238 237 238 238 240 243 247 250 254 257 261 265 267 271 274 276 280 283 286 289 291 291 291 292 293 293 293 294 294 295 296 297 297 297 298
264 265 266 267 269 269 270 271 272 272 272 271 270 269 267 265 264 263 263 263 264 264 264 264 265 265 264 263 261 257 252 250 252 253 255 256 256 255 253 250 251 252 253 253 252 250 248 245 242 240 239 238 238 239 241 244 247 251 256 259 263 266 269 272 275 278 281 284 288 290 291 290 290 290 290 291 291 292 293 294 295 295 296 296 297
269 270 271 272 273 273 273 273 273 272 271 270 269 268 267 265 264 262 261 260 260 261 262 262 262 263 263 262 261 259 255 251 248 249 251 254 255 256 255 253 252 252 253 253 251 248 246 242 239 237 238 239 241 242 244 247 251 254 258 261 264 268 271 274 276 278 282 285 288 290 290 289 289 288 288 288 288 289 291 292 293 294 294 295 295
275 276 276 277 277 277 277 276 275 274 273 271 271 270 269 268 266 264 263 261 260 259 258 258 259 259 259 260 259 258 257 254 250 248 249 250 251 251 251 250 249 249 248 246 244 241 237 235 236 237 238 239 242 245 247 251 254 257 260 263 266 268 271 273 275 278 281 284 286 287 288 288 288 287 286 286 286 287 290 292 293 293 293 294 294
279 280 280 280 280 279 278 277 276 276 275 274 273 272 270 269 268 266 265 263 262 260 259 257 256 255 255 255 255 255 255 254 252 249 249 249 249 248 245 242 242 242 240 238 238 237 235 236 241 244 242 239 240 243 246 250 255 259 261 263 265 268 270 273 276 279 281 283 284 284 286 288 288 286 284 284 285 289 292 294 294 293 293 294 295
284 284 284 283 282 281 280 279 279 278 276 275 274 273 273 272 270 269 267 265 264 262 261 259 257 256 253 252 251 251 252 252 250 249 248 247 248 248 244 241 242 245 245 242 240 238 236 239 243 245 243 241 242 244 248 252 256 259 261 263 264 266 269 273 277 279 280 281 282 283 284 286 286 285 284 284 287 291 293 294 294 294 294 295 296
288 288 287 286 285 285 284 283 282 280 278 276 275 274 273 273 272 271 270 268 266 265 263 261 259 257 255 252 249 248 247 247 247 247 246 245 245 248 248 246 246 250 253 253 248 241 237 237 238 240 243 246 247 248 251 255 257 259 261 263 264 267 270 274 278 279 280 281 281 282 283 284 284 284 284 286 288 291 292 293 293 293 293 293 293
292 291 291 291 290 290 289 287 285 283 282 280 278 276 274 273 271 270 269 268 266 265 264 263 261 258 256 254 251 248 245 243 242 243 243 243 243 245 247 248 248 247 247 249 250 246 239 234 233 237 242 247 251 255 258 260 262 263 264 265 267 270 272 275 277 278 279 279 280 281 283 284 285 286 287 288 290 291 292 292 291 290 290 290 291
293 293 294 295 296 295 294 293 292 290 289 287 284 281 278 275 273 271 269 268 266 264 262 261 260 259 257 255 253 251 248 244 241 239 240 240 241 241 243 246 248 248 246 246 250 251 246 241 242 245 248 252 258 263 267 269 270 270 271 273 275 277 276 276 276 276 277 278 279 281 283 284 286 287 288 290 290 290 289 288 287 287 289 290 292
295 297 300 302 303 302 301 302 302 301 299 296 293 290 285 280 276 272 270 269 267 265 263 260 258 257 256 254 252 251 248 246 243 241 239 238 238 239 240 241 245 249 249 249 251 252 250 249 250 249 247 251 257 262 267 271 273 276 278 280 281 282 280 277 275 274 275 277 279 281 282 283 285 287 288 289 288 287 286 285 286 288 290 291 293
Height
3126 3127 3128 3128 3129 3130 3131 3132 3133 3135 3137 3139 3141 3142 3143 3144 3145 3147 3148 3150 3151 3152 3153 3153 3154 3154 3154 3155 3154 3154 3154 3153 3153 3152 3151 3150 3149 3148 3148 3148 3148 3148 3148 3148 3148 3148 3149 3149 3150 3151 3151 3152 3153 3155 3155 3156 3156 3156 3157 3158 3159 3159 3159 3161 3162 3163 3163 3163 3164 3164 3165 3166 3167 3167 3168 3169 3169 3168 3168 3168 3168 3168 3169 3170 3171
3126 3126 3127 3127 3128 3129 3131 3132 3133 3135 3137 3139 3141 3142 3143 3143 3145 3146 3148 3150 3151 3151 3152 3153 3153 3154 3154 3154 3154 3154 3154 3153 3152 3152 3151 3150 3149 3148 3147 3147 3147 3146 3147 3147 3147 3147 3148 3148 3148 3149 3149 3150 3152 3152 3153 3154 3155 3155 3155 3156 3157 3157 3158 3159 3161 3162 3162 3162 3162 3163 3164 3165 3165 3166 3166 3167 3167 3167 3167 3167 3167 3168 3168 3169 3169
3125 3126 3126 3127 3128 3129 3130 3132 3133 3135 3137 3139 3140 3141 3142 3143 3144 3146 3148 3149 3150 3151 3152 3153 3153 3154 3154 3154 3154 3154 3153 3153 3152 3152 3151 3150 3149 3148 3147 3147 3146 3146 3146 3146 3146 3146 3146 3146 3147 3147 3148 3149 3149 3150 3151 3152 3153 3154 3154 3154 3155 3155 3156 3157 3158 3160 3161 3161 3161 3161 3163 3164 3164 3164 3165 3165 3166 3166 3166 3166 3166 3167 3168 3168 3168
3125 3125 3126 3126 3127 3129 3130 3131 3133 3134 3136 3138 3140 3141 3141 3142 3144 3146 3148 3149 3150 3151 3151 3152 3153 3153 3153 3154 3154 3154 3153 3153 3152 3151 3150 3149 3148 3147 3146 3146 3145 3145 3145 3145 3145 3145 3145 3145 3145 3146 3146 3147 3147 3148 3149 3151 3152 3152 3153 3153 3153 3153 3154 3155 3156 3157 3159 3160 3160 3160 3161 3163 3163 3163 3164 3164 3164 3165 3165 3165 3166 3166 3167 3167 3167
3124 3125 3125 3126 3127 3128 3129 3131 3132 3134 3136 3138 3139 3140 3141 3142 3144 3145 3147 3148 3149 3150 3151 3152 3152 3153 3153 3153 3153 3153 3153 3152 3151 3151 3150 3149 3147 3146 3145 3144 3144 3144 3143 3143 3143 3143 3144 3144 3144 3144 3145 3145 3146 3147 3148 3149 3150 3151 3151 3151 3151 3152 3152 3153 3154 3155 3156 3157 3158 3159 3160 3161 3161 3162 3163 3163 3163 3163 3164 3164 3164 3164 3165 3165 3165
3123 3124 3124 3125 3126 3127 3129 3130 3132 3134 3136 3137 3139 3140 3141 3142 3143 3145 3146 3147 3149 3150 3151 3151 3152 3152 3153 3153 3152 3152 3152 3151 3150 3150 3149 3148 3147 3146 3145 3143 3143 3142 3142 3142 3141 3142 3142 3142 3143 3143 3143 3143 3144 3145 3146 3147 3148 3149 3149 3150 3150 3150 3151 3151 3152 3153 3153 3155 3156 3157 3158 3159 3160 3160 3161 3161 3162 3162 3162 3163 3163 3163 3163 3163 3164
3122 3123 3124 3125 3126 3127 3128 3130 3131 3133 3135 3137 3138 3139 3140 3141 3143 3144 3145 3147 3148 3149 3150 3151 3151 3152 3152 3152 3152 3152 3151 3150 3150 3149 3149 3148 3147 3146 3145 3144 3143 3142 3141 3141 3140 3140 3141 3141 3141 3141 3142 3142 3142 3143 3144 3145 3146 3146 3147 3147 3148 3148 3149 3150 3150 3150 3151 3153 3154 3155 3156 3157 3158 3158 3159 3160 3160 3160 3161 3161 3161 3161 3161 3162 3162
3122 3123 3123 3124 3125 3127 3128 3130 3131 3133 3134 3136 3137 3138 3139 3141 3142 3144 3145 3146 3147 3148 3149 3150 3150 3151 3151 3151 3152 3151 3151 3150 3149 3149 3148 3147 3146 3146 3145 3144 3143 3142 3141 3140 3140 3140 3140 3140 3140 3140 3140 3141 3141 3141 3142 3143 3143 3144 3145 3145 3145 3146 3147 3148 3149 3149 3150 3151 3151 3153 3154 3155 3155 3156 3157 3158 3159 3159 3159 3159 3159 3159 3160 3160 3160
3120 3122 3123 3124 3125 3126 3128 3129 3130 3132 3133 3135 3136 3137 3138 3140 3141 3142 3144 3145 3146 3147 3148 3149 3149 3150 3150 3150 3151 3150 3150 3149 3149 3148 3147 3146 3145 3145 3144 3143 3142 3141 3140 3139 3139 3139 3139 3139 3140 3140 3140 3140 3140 3140 3141 3142 3142 3143 3143 3143 3144 3144 3146 3147 3147 3148 3148 3149 3150 3151 3152 3153 3154 3155 3156 3157 3157 3157 3157 3157 3158 3158 3158 3158 3158
3119 3121 3122 3123 3124 3125 3127 3128 3129 3130 3131 3133 3134 3136 3137 3138 3139 3141 3142 3144 3145 3146 3147 3147 3148 3148 3149 3149 3149 3149 3148 3148 3148 3147 3147 3146 3145 3144 3143 3142 3142 3141 3140 3139 3138 3138 3138 3138 3139 3139 3139 3139 3140 3140 3140 3141 3141 3142 3142 3142 3143 3143 3144 3145 3146 3146 3147 3148 3149 3150 3151 3152 3153 3154 3155 3156 3156 3155 3156 3156 3156 3156 3156 3156 3156
3118 3119 3120 3121 3122 3124 3125 3126 3127 3128 3129 3131 3132 3134 3135 3136 3138 3139 3140 3142 3143 3144 3145 3146 3147 3147 3148 3148 3148 3148 3147 3147 3147 3146 3146 3145 3144 3144 3143 3142 3141 3140 3139 3139 3138 3138 3137 3138 3138 3138 3138 3138 3139 3139 3139 3140 3140 3141 3141 3141 3142 3142 3143 3144 3144 3145 3146 3147 3148 3149 3150 3151 3152 3153 3153 3154 3154 3154 3154 3155 3155 3155 3155 3155 3155
3116 3117 3119 3120 3121 3122 3123 3124 3125 3126 3127 3129 3131 3132 3134 3135 3136 3137 3139 3140 3141 3142 3143 3144 3145 3146 3147 3147 3147 3147 3147 3146 3146 3146 3145 3144 3143 3142 3142 3142 3140 3139 3138 3138 3137 3137 3137 3137 3137 3138 3138 3138 3138 3138 3138 3139 3139 3140 3141 3141 3141 3142 3142 3143 3144 3144 3145 3146 3147 3148 3149 3150 3150 3151 3152 3152 3152 3153 3153 3154 3154 3153 3154 3154 3155
3114 3115 3117 3119 3120 3121 3122 3122 3123 3124 3124 3126 3128 3130 3132 3133 3134 3135 3137 3138 3138 3139 3140 3142 3143 3144 3145 3145 3145 3145 3145 3145 3145 3144 3144 3143 3142 3141 3141 3141 3140 3139 3137 3136 3136 3136 3136 3136 3137 3137 3137 3137 3138 3138 3138 3139 3139 3140 3140 3141 3141 3142 3142 3143 3143 3144 3145 3146 3146 3147 3148 3148 3149 3150 3150 3151 3151 3151 3152 3152 3153 3153 3153 3154 3154
3112 3113 3115 3117 3119 3119 3120 3120 3120 3121 3122 3124 3125 3127 3129 3131 3132 3134 3133 3132 3133 3135 3138 3140 3141 3142 3143 3143 3143 3143 3143 3143 3143 3142 3142 3142 3141 3140 3139 3140 3139 3138 3137 3136 3135 3135 3135 3135 3136 3136 3136 3137 3137 3137 3138 3138 3139 3139 3140 3140 3141 3142 3142 3143 3143 3144 3145 3145 3146 3146 3147 3147 3148 3149 3149 3150 3150 3151 3151 3152 3152 3152 3153 3153 3154
3109 3110 3112 3114 3114 3115 3115 3114 3113 3114 3117 3120 3123 3125 3126 3128 3130 3129 3126 3128 3133 3136 3138 3139 3140 3140 3141 3141 3140 3141 3141 3141 3141 3140 3140 3140 3140 3139 3138 3138 3138 3137 3136 3136 3135 3135 3135 3135 3135 3135 3135 3136 3136 3137 3137 3138 3138 3139 3140 3140 3141 3141 3142 3142 3143 3144 3144 3145 3145 3146 3146 3147 3148 3148 3149 3149 3150 3150 3151 3151 3152 3152 3153 3153 3153
3105 3107 3108 3109 3110 3112 3113 3113 3113 3113 3112 3114 3119 3123 3124 3126 3126 3121 3122 3129 3134 3136 3136 3137 3137 3138 3139 3138 3138 3138 3138 3139 3138 3138 3137 3138 3139 3138 3137 3137 3137 3137 3136 3135 3135 3135 3135 3135 3135 3135 3135 3135 3136 3136 3137 3137 3138 3139 3140 3140 3141 3142 3142 3143 3143 3144 3144 3145 3146 3146 3147 3147 3148 3148 3149 3149 3150 3150 3151 3151 3151 3152 3152 3153 3153
3102 3103 3104 3105 3106 3108 3110 3115 3118 3118 3113 3113 3119 3121 3122 3123 3120 3116 3123 3131 3133 3133 3133 3133 3135 3136 3136 3135 3135 3134 3135 3135 3135 3135 3136 3137 3137 3137 3137 3137 3136 3136 3136 3135 3135 3135 3135 3135 3135 3135 3135 3136 3136 3136 3137 3137 3138 3139 3140 3140 3141 3142 3143 3143 3144 3145 3145 3146 3147 3147 3148 3148 3149 3149 3149 3150 3150 3150 3151 3151 3151 3152 3152 3152 3152
3100 3101 3102 3103 3104 3106 3108 3113 3117 3117 3116 3117 3120 3121 3122 3122 3118 3116 3125 3131 3130 3130 3131 3132 3133 3133 3132 3132 3131 3131 3132 3133 3133 3133 3134 3135 3135 3136 3136 3136 3136 3136 3136 3135 3135 3135 3135 3135 3135 3136 3136 3136 3137 3137 3137 3138 3138 3139 3140 3141 3142 3143 3143 3144 3145 3146 3146 3147 3148 3148 3149 3149 3149 3150 3150 3150 3150 3150 3151 3151 3151 3151 3151 3151 3151
3100 3101 3102 3102 3104 3107 3109 3111 3114 3116 3117 3119 3121 3122 3122 3122 3120 3120 3124 3128 3128 3128 3129 3130 3131 3131 3130 3129 3129 3130 3130 3131 3131 3131 3133 3134 3134 3135 3136 3135 3135 3135 3135 3135 3135 3135 3136 3136 3136 3136 3136 3137 3137 3137 3138 3138 3139 3139 3140 3141 3142 3143 3144 3145 3146 3146 3147 3148 3148 3149 3149 3150 3150 3150 3150 3150 3151 3151 3151 3151 3151 3151 3151 3151 3151
3100 3101 3102 3102 3103 3106 3107 3109 3113 3116 3118 3119 3120 3121 3121 3122 3122 3122 3123 3125 3126 3127 3127 3128 3128 3128 3128 3128 3128 3128 3128 3128 3128 3129 3131 3132 3133 3134 3135 3135 3135 3135 3135 3135 3136 3136 3136 3136 3137 3137 3137 3137 3138 3138 3139 3139 3139 3140 3141 3141 3142 3143 3144 3145 3146 3147 3147 3148 3148 3149 3149 3150 3150 3150 3151 3151 3151 3151 3151 3151 3151 3150 3150 3150 3150
3100 3101 3102 3103 3103 3104 3106 3108 3112 3114 3116 3118 3119 3119 3120 3121 3121 3122 3122 3123 3124 3125 3126 3126 3125 3126 3126 3126 3126 3126 3126 3126 3127 3128 3129 3129 3131 3133 3133 3134 3134 3135 3135 3136 3136 3137 3137 3137 3137 3138 3138 3138 3139 3139 3139 3140 3140 3140 3141 3141 3142 3143 3143 3144 3145 3146 3147 3147 3148 3148 3149 3149 3149 3150 3150 3150 3151 3151 3151 3151 3150 3150 3150 3150 3150
3099 3100 3101 3103 3103 3104 3105 3108 3111 3113 3114 3115 3117 3118 3119 3120 3120 3121 3122 3122 3123 3124 3124 3124 3124 3124 3124 3124 3124 3124 3124 3125 3125 3126 3127 3128 3129 3131 3131 3132 3133 3134 3136 3136 3136 3137 3137 3137 3137 3138 3138 3139 3139 3139 3140 3140 3140 3140 3141 3141 3141 3142 3142 3143 3144 3144 3145 3146 3146 3147 3147 3148 3148 3148 3149 3149 3150 3150 3150 3150 3150 3149 3149 3149 3149
3099 3100 3101 3103 3103 3104 3106 3108 3110 3112 3113 3114 3115 3116 3117 3118 3119 3119 3120 3121 3122 3123 3123 3123 3122 3122 3123 3123 3122 3122 3122 3123 3123 3124 3125 3126 3127 3128 3130 3131 3132 3133 3135 3136 3137 3137 3137 3137 3137 3137 3137 3138 3138 3139 3139 3140 3140 3140 3140 3141 3141 3141 3142 3142 3143 3143 3144 3144 3145 3145 3146 3146 3146 3147 3147 3147 3148 3148 3148 3148 3148 3148 3148 3148 3147
3098 3099 3100 3102 3103 3104 3105 3108 3109 3111 3112 3112 3113 3114 3115 3116 3117 3118 3118 3120 3121 3122 3122 3122 3122 3122 3122 3121 3121 3121 3121 3122 3122 3122 3123 3124 3126 3127 3128 3130 3131 3132 3134 3135 3136 3136 3137 3136 3136 3136 3137 3137 3137 3137 3138 3139 3139 3139 3140 3140 3140 3141 3141 3141 3142 3142 3142 3143 3143 3144 3144 3145 3145 3145 3145 3145 3146 3146 3146 3146 3146 3146 3146 3146 3146
3098 3099 3100 3101 3102 3103 3105 3107 3108 3110 3111 3111 3112 3112 3113 3114 3115 3116 3117 3118 3119 3120 3120 3121 3121 3121 3121 3120 3120 3120 3120 3121 3121 3121 3121 3122 3124 3125 3127 3128 3129 3131 3132 3133 3134 3135 3135 3135 3135 3136 3136 3136 3136 3137 3137 3137 3138 3138 3138 3139 3139 3140 3140 3141 3141 3141 3142 3142 3142 3142 3143 3143 3143 3143 3143 3143 3143 3143 3143 3143 3143 3143 3143 3143 3143
3097 3098 3099 3100 3102 3103 3105 3106 3107 3108 3109 3110 3110 3111 3112 3113 3114 3114 3115 3116 3116 3117 3118 3119 3119 3119 3119 3119 3119 3119 3119 3119 3119 3119 3120 3120 3121 3123 3125 3126 3127 3129 3130 3131 3132 3132 3133 3133 3133 3134 3134 3135 3136 3136 3137 3137 3137 3137 3137 3138 3138 3139 3139 3140 3140 3140 3141 3141 3141 3141 3141 3141 3141 3141 3141 3141 3141 3141 3141 3141 3141 3141 3140 3140 3140
3097 3098 3099 3100 3102 3103 3104 3105 3106 3107 3108 3108 3109 3110 3111 3111 3112 3113 3114 3114 3114 3115 3115 3116 3116 3116 3117 3117 3117 3117 3117 3117 3118 3118 3118 3119 3119 3121 3122 3124 3125 3126 3127 3128 3129 3130 3130 3131 3131 3132 3133 3134 3134 3135 3135 3136 3136 3136 3136 3137 3137 3137 3137 3138 3138 3138 3139 3139 3139 3139 3139 3139 3138 3138 3139 3139 3138 3138 3138 3139 3138 3138 3138 3138 3138
3096 3097 3098 3099 3101 3102 3103 3104 3105 3106 3106 3107 3108 3109 3109 3110 3110 3111 3111 3112 3112 3112 3113 3113 3113 3114 3114 3114 3115 3115 3115 3115 3116 3116 3116 3117 3117 3118 3120 3121 3122 3123 3124 3125 3126 3127 3127 3128 3129 3130 3131 3132 3133 3133 3133 3133 3134 3134 3134 3135 3135 3135 3135 3135 3136 3136 3136 3137 3137 3137 3137 3137 3136 3137 3137 3136 3136 3136 3136 3136 3136 3136 3136 3136 3136
3095 3096 3097 3098 3099 3100 3101 3102 3103 3104 3105 3105 3106 3107 3107 3108 3108 3108 3108 3109 3109 3110 3111 3111 3111 3112 3112 3112 3113 3113 3113 3113 3113 3114 3114 3115 3116 3116 3117 3118 3119 3120 3122 3122 3123 3123 3124 3125 3126 3128 3129 3130 3130 3130 3131 3131 3132 3132 3132 3132 3132 3133 3133 3133 3133 3134 3134 3134 3134 3134 3134 3134 3134 3134 3134 3134 3134 3133 3133 3133 3132 3132 3133 3133 3132
3093 3094 3096 3097 3098 3099 3100 3101 3102 3102 3103 3103 3104 3104 3105 3105 3106 3106 3106 3107 3107 3108 3108 3109 3109 3110 3110 3110 3110 3111 3111 3111 3111 3112 3112 3113 3113 3114 3115 3115 3116 3118 3119 3119 3119 3120 3120 3121 3123 3125 3126 3126 3126 3127 3128 3128 3129 3129 3130 3130 3130 3130 3131 3131 3131 3132 3131 3131 3132 3132 3131 3131 3131 3131 3131 3131 3131 3130 3130 3129 3129 3129 3129 3129 3128
3092 3093 3094 3095 3096 3097 3098 3099 3099 3100 3100 3101 3101 3102 3102 3103 3104 3104 3104 3104 3105 3106 3106 3107 3107 3108 3108 3108 3108 3108 3108 3109 3109 3109 3110 3110 3111 3111 3111 3112 3113 3114 3115 3116 3116 3116 3117 3118 3119 3121 3123 3123 3123 3123 3124 3125 3126 3126 3126 3126 3127 3127 3128 3128 3129 3129 3129 3129 3129 3129 3128 3128 3128 3129 3129 3129 3128 3127 3127 3126 3126 3126 3126 3125 3124
3090 3091 3092 3093 3094 3095 3096 3096 3097 3098 3098 3099 3099 3099 3100 3100 3101 3101 3102 3102 3103 3103 3104 3105 3105 3106 3106 3106 3106 3106 3106 3106 3106 3107 3107 3107 3108 3108 3108 3109 3110 3110 3111 3111 3112 3112 3113 3113 3114 3115 3117 3119 3119 3120 3120 3121 3122 3123 3123 3123 3124 3125 3125 3126 3126 3126 3127 3127 3127 3126 3126 3126 3126 3126 3126 3126 3126 3125 3124 3124 3123 3123 3122 3122 3121
3087 3089 3090 3091 3092 3093 3093 3094 3094 3095 3096 3096 3097 3097 3097 3098 3098 3098 3099 3099 3100 3100 3101 3101 3102 3103 3103 3103 3103 3103 3103 3103 3103 3103 3104 3104 3105 3105 3105 3105 3106 3106 3107 3107 3108 3108 3108 3109 3109 3110 3111 3113 3115 3116 3116 3117 3118 3120 3120 3120 3121 3122 3123 3123 3123 3124 3125 3125 3125 3124 3124 3124 3124 3124 3124 3124 3123 3122 3122 3121 3121 3120 3119 3119 3118
3085 3086 3088 3089 3089 3090 3091 3091 3092 3092 3093 3094 3094 3095 3095 3095 3095 3096 3096 3096 3097 3097 3097 3098 3098 3099 3099 3100 3100 3100 3100 3100 3100 3100 3101 3101 3101 3102 3102 3102 3102 3102 3103 3103 3103 3104 3104 3104 3105 3105 3106 3108 3109 3111 3112 3113 3114 3116 3117 3118 3118 3119 3120 3120 3121 3121 3122 3122 3122 3122 3122 3122 3122 3122 3122 3121 3121 3120 3119 3118 3118 3117 3116 3115 3115
3084 3085 3086 3086 3087 3087 3088 3088 3089 3090 3090 3091 3091 3092 3092 3093 3093 3093 3094 3094 3094 3094 3094 3094 3094 3095 3096 3096 3097 3097 3097 3097 3097 3097 3098 3098 3098 3098 3099 3099 3099 3099 3099 3100 3100 3101 3101 3101 3102 3102 3103 3104 3104 3106 3108 3110 3111 3112 3114 3115 3116 3116 3117 3117 3118 3119 3119 3119 3119 3119 3119 3119 3119 3119 3118 3118 3118 3117 3116 3116 3115 3114 3113 3113 3112
3082 3083 3084 3084 3085 3085 3085 3086 3086 3087 3088 3088 3088 3089 3089 3089 3090 3090 3091 3091 3091 3091 3091 3091 3091 3092 3092 3093 3094 3094 3095 3095 3095 3095 3095 3095 3095 3096 3096 3096 3096 3097 3097 3097 3098 3098 3099 3099 3099 3100 3101 3101 3102 3104 3107 3107 3108 3109 3111 3112 3113 3114 3114 3115 3115 3115 3116 3116 3116 3116 3116 3116 3116 3115 3115 3114 3114 3114 3113 3113 3112 3111 3110 3109 3109
3080 3081 3081 3082 3082 3082 3082 3083 3083 3084 3085 3085 3085 3085 3086 3086 3086 3087 3087 3087 3087 3088 3088 3088 3088 3089 3089 3090 3090 3091 3091 3092 3092 3092 3092 3092 3092 3093 3093 3093 3094 3094 3094 3095 3095 3096 3096 3097 3098 3099 3099 3099 3100 3102 3104 3105 3106 3107 3108 3109 3110 3111 3112 3112 3112 3112 3113 3113 3113 3113 3113 3112 3112 3112 3111 3111 3111 3111 3110 3109 3108 3108 3107 3106 3105
3077 3078 3078 3079 3079 3080 3080 3080 3081 3081 3081 3082 3082 3082 3082 3083 3083 3083 3083 3083 3083 3084 3085 3085 3085 3086 3086 3086 3087 3087 3087 3088 3088 3088 3088 3088 3089 3089 3090 3090 3091 3091 3092 3092 3093 3093 3094 3095 3095 3096 3097 3097 3097 3099 3100 3102 3103 3104 3106 3107 3107 3108 3109 3109 3109 3110 3110 3110 3109 3109 3109 3109 3109 3108 3108 3108 3107 3107 3106 3106 3105 3104 3103 3102 3101
3075 3075 3076 3076 3076 3077 3077 3077 3078 3078 3078 3078 3079 3079 3079 3079 3079 3079 3079 3079 3079 3080 3080 3081 3081 3082 3082 3083 3083 3083 3083 3084 3084 3084 3084 3085 3085 3086 3087 3087 3088 3088 3089 3090 3090 3091 3091 3092 3093 3094 3094 3095 3095 3096 3098 3099 3101 3102 3103 3104 3104 3105 3106 3106 3107 3107 3106 3106 3106 3106 3106 3106 3105 3105 3104 3104 3103 3103 3102 3102 3101 3100 3099 3097 3096
3072 3073 3073 3073 3073 3074 3074 3074 3074 3074 3074 3075 3075 3075 3075 3075 3075 3075 3075 3075 3074 3075 3075 3076 3076 3077 3077 3078 3079 3079 3079 3080 3080 3080 3080 3081 3082 3083 3083 3084 3085 3085 3086 3086 3087 3088 3089 3089 3090 3091 3092 3093 3094 3095 3096 3097 3098 3099 3100 3101 3101 3102 3103 3103 3103 3103 3103 3103 3103 3103 3103 3102 3102 3101 3101 3100 3099 3099 3098 3098 3097 3095 3094 3093 3091
3069 3069 3069 3070 3070 3070 3070 3070 3070 3070 3070 3070 3070 3070 3070 3070 3071 3071 3070 3070 3070 3070 3070 3071 3072 3072 3072 3073 3074 3075 3075 3076 3076 3076 3077 3077 3078 3079 3080 3081 3081 3082 3083 3083 3084 3085 3086 3087 3088 3089 3090 3091 3091 3092 3093 3094 3095 3096 3097 3097 3098 3099 3099 3100 3100 3100 3101 3100 3100 3100 3100 3099 3098 3098 3097 3096 3096 3095 3094 3094 3092 3091 3090 3088 3086
3066 3066 3066 3065 3066 3066 3065 3065 3065 3065 3065 3064 3064 3064 3065 3065 3065 3065 3065 3064 3064 3064 3065 3065 3066 3067 3068 3068 3069 3070 3071 3072 3072 3073 3073 3074 3074 3075 3076 3077 3078 3078 3079 3080 3081 3081 3083 3084 3084 3085 3086 3087 3088 3089 3090 3091 3092 3093 3093 3094 3095 3095 3096 3097 3097 3097 3097 3097 3097 3096 3096 3095 3095 3094 3094 3093 3092 3091 3090 3090 3089 3087 3086 3084 3082
3062 3062 3062 3061 3061 3061 3061 3061 3060 3060 3059 3058 3058 3057 3058 3058 3059 3059 3059 3058 3058 3058 3059 3059 3060 3061 3063 3064 3065 3065 3066 3067 3068 3069 3069 3069 3070 3071 3072 3073 3074 3074 3075 3076 3077 3078 3079 3080 3081 3082 3083 3084 3085 3085 3086 3087 3088 3089 3089 3090 3091 3091 3092 3093 3093 3093 3093 3093 3093 3092 3092 3091 3091 3090 3090 3089 3088 3087 3087 3086 3085 3083 3082 3080 3078
3058 3058 3057 3057 3056 3056 3056 3055 3055 3054 3053 3052 3050 3050 3050 3051 3052 3052 3052 3052 3052 3052 3052 3053 3054 3055 3056 3058 3059 3060 3061 3062 3063 3064 3065 3065 3065 3066 3067 3068 3070 3071 3072 3072 3073 3074 3076 3077 3078 3078 3079 3080 3081 3082 3083 3083 3084 3085 3086 3086 3087 3087 3088 3088 3088 3089 3089 3088 3088 3088 3088 3088 3087 3086 3086 3085 3084 3084 3083 3082 3081 3079 3078 3076 3074
3053 3053 3052 3051 3050 3050 3049 3048 3047 3046 3045 3044 3043 3042 3042 3042 3043 3043 3043 3043 3044 3044 3044 3045 3047 3048 3049 3051 3052 3053 3055 3057 3058 3059 3059 3060 3061 3061 3062 3063 3064 3065 3066 3067 3068 3069 3070 3071 3072 3074 3075 3076 3077 3078 3079 3080 3081 3082 3083 3083 3083 3084 3084 3084 3085 3085 3085 3085 3085 3085 3084 3084 3083 3082 3082 3081 3081 3080 3079 3078 3077 3075 3074 3072 3070
3048 3047 3047 3046 3044 3043 3042 3041 3040 3039 3038 3037 3035 3034 3034 3034 3034 3034 3034 3034 3034 3035 3036 3037 3038 3040 3041 3043 3044 3046 3048 3050 3051 3053 3054 3055 3055 3056 3057 3058 3058 3059 3060 3061 3062 3064 3065 3066 3068 3070 3071 3072 3073 3074 3075 3077 3078 3079 3080 3080 3080 3081 3081 3081 3081 3081 3081 3081 3081 3081 3081 3080 3079 3078 3078 3077 3077 3076 3075 3074 3072 3071 3069 3067 3065
3043 3042 3042 3040 3039 3037 3036 3034 3033 3033 3031 3030 3029 3028 3027 3026 3025 3025 3025 3025 3026 3026 3027 3028 3030 3031 3033 3035 3036 3038 3040 3042 3044 3046 3047 3049 3050 3050 3051 3052 3053 3054 3055 3057 3058 3058 3058 3061 3064 3065 3067 3068 3069 3070 3072 3073 3075 3076 3076 3077 3077 3077 3078 3078 3078 3078 3078 3078 3077 3077 3077 3076 3076 3075 3074 3074 3073 3072 3070 3069 3067 3065 3064 3062 3060
3039 3038 3036 3034 3033 3031 3030 3029 3027 3026 3025 3024 3022 3021 3020 3019 3018 3018 3017 3017 3018 3018 3019 3020 3022 3023 3024 3026 3028 3030 3032 3034 3036 3038 3040 3042 3044 3045 3046 3047 3049 3050 3051 3052 3053 3052 3053 3056 3059 3061 3063 3064 3066 3067 3069 3070 3071 3072 3073 3073 3074 3074 3074 3074 3074 3074 3074 3073 3073 3073 3072 3072 3072 3071 3070 3070 3068 3067 3066 3064 3062 3060 3059 3057 3056
3034 3032 3030 3028 3027 3025 3024 3022 3020 3018 3017 3016 3015 3014 3013 3012 3011 3010 3009 3009 3010 3010 3011 3012 3013 3015 3016 3018 3020 3022 3024 3026 3029 3031 3033 3035 3037 3039 3041 3042 3044 3045 3046 3048 3049 3049 3050 3053 3055 3056 3058 3060 3062 3063 3065 3066 3067 3068 3069 3069 3070 3070 3070 3070 3070 3070 3069 3069 3069 3068 3068 3068 3067 3067 3066 3065 3064 3063 3061 3059 3058 3056 3055 3053 3052
3029 3027 3026 3024 3022 3020 3018 3016 3014 3012 3010 3009 3008 3007 3005 3004 3003 3002 3001 3001 3001 3002 3003 3004 3005 3007 3009 3011 3012 3014 3016 3019 3021 3023 3025 3028 3030 3033 3035 3037 3039 3040 3042 3044 3045 3046 3048 3049 3050 3052 3054 3056 3057 3059 3060 3061 3062 3063 3064 3064 3065 3065 3065 3066 3066 3065 3065 3065 3064 3064 3064 3063 3063 3062 3061 3061 3059 3058 3057 3055 3054 3052 3051 3050 3049
3025 3024 3022 3021 3018 3016 3014 3012 3010 3008 3006 3003 3002 3000 2999 2997 2996 2995 2994 2993 2992 2993 2994 2996 2997 2998 3000 3002 3004 3006 3009 3011 3013 3016 3018 3020 3023 3025 3028 3031 3033 3035 3037 3039 3041 3042 3044 3045 3046 3048 3050 3051 3053 3054 3056 3057 3057 3058 3059 3059 3060 3060 3061 3061 3061 3061 3061 3060 3060 3060 3059 3059 3059 3058 3057 3056 3055 3054 3053 3051 3050 3049 3048 3047 3046